EEL RIVER CAMP CA US current weather conditions

sailwx.info

Wind from 333 at 5 knots gusting 15

Air temperature 18.9° C
Dewpoint 9.4° C

Last reported at 2015-Apr-21 22:28 UTC.
Time now 2015-Apr-21 23:28 UTC

Location: N 40°08' W 123°49'.
View on Google Maps.

See reports from other nearby stations

  
Tides and Currents Weather Stations Pressure Air Temp Water Temp Dewpoint Dewpoint Depression Visibility Wind Speed Wind Dir Waves Ship Positions
date/time (UTC)wind fromknots sea level pressurealtimeterstation pressurevisibilityair tempwater tempwave heightnotes
2015-Apr-21 22:28 333 5 gusting 15 18.9
2015-Apr-21 21:28 046 6 gusting 13 17.8
2015-Apr-21 20:28 057 8 gusting 18 16.7
2015-Apr-21 19:28 045 10 gusting 17 16.1
2015-Apr-21 18:28 064 7 gusting 17 15.6
2015-Apr-21 17:28 069 6 gusting 12 14.4
2015-Apr-21 16:28 055 6 gusting 10 12.2
2015-Apr-21 15:28 050 6 gusting 13 10.6
2015-Apr-21 14:28 051 6 gusting 13 10.0
2015-Apr-21 13:28 031 5 gusting 9 10.0
2015-Apr-21 12:28 044 4 gusting 10 10.0
2015-Apr-21 11:28 046 5 gusting 12 10.0
2015-Apr-21 10:28 050 4 gusting 10 10.6
2015-Apr-21 09:28 005 2 gusting 6 10.0
2015-Apr-21 08:28 313 0 gusting 5 8.9
2015-Apr-21 07:28 038 2 gusting 8 10.6
2015-Apr-21 06:28 058 6 gusting 11 11.7
2015-Apr-21 05:28 060 4 gusting 11 13.3
2015-Apr-21 04:28 063 4 gusting 7 15.6
2015-Apr-21 03:28 17.2
2015-Apr-21 02:28 159 3 gusting 7 21.7
2015-Apr-21 01:28 167 3 gusting 6 24.4
2015-Apr-21 00:28 173 4 gusting 9 25.6
2015-Apr-20 23:28 137 5 gusting 10 25.6
2015-Apr-20 22:28 178 5 gusting 10 26.1
2015-Apr-20 21:28 184 6 gusting 10 26.7
2015-Apr-20 20:28 055 2 gusting 4 27.2
2015-Apr-20 19:28 25.0
2015-Apr-20 18:28 22.2
2015-Apr-20 17:28 18.3
2015-Apr-20 16:28 15.0
2015-Apr-20 15:28 9.4
2015-Apr-20 14:28 6.1
2015-Apr-20 13:28 6.1
2015-Apr-20 12:28 6.7
2015-Apr-20 11:28 7.2
2015-Apr-20 10:28 7.2
2015-Apr-20 09:28 8.3
2015-Apr-20 08:28 8.9
2015-Apr-20 07:28 10.0
2015-Apr-20 06:28 11.1
2015-Apr-20 05:28 12.8
2015-Apr-20 04:28 14.4
2015-Apr-20 03:28 17.8
2015-Apr-20 02:28 343 1 gusting 6 22.2
2015-Apr-20 01:28 083 2 gusting 9 28.3
2015-Apr-20 00:28 204 1 gusting 11 30.6
2015-Apr-19 23:28 210 6 gusting 10 30.6